Location: Wells
(51.2093°N, 2.6446°W)
Time: 06:03:20
(UTC+01:00)

ITUPSAT 1 - Pass Details

Date: 21 March 2026
Orbit: 686 x 698 km, 98.4° (Epoch: 15 April)

Event Time Altitude Azimuth Distance (km) Brightness Sun altitude
Rises 23:13:52 0° 20° (NNE) 3,071 ? -36.5°
Reaches altitude 10° 23:16:15 10° 27° (NNE) 2,149 ? -36.6°
Enters shadow 23:16:38 12° 29° (NNE) 2,006 ? -36.7°
